レナード彗星

C/2021 A1 ( Leonard )

English version
Home page
Updated on September 11, 2021

---------------------------------------------------------------------

・ プロフィール

発見日 2021年1月3日
発見光度 19.0等
発見者 Gregory J. Leonard (Mount Lemmon Survey)

・ 写真集

・ 軌道要素

Epoch 2022 Jan. 21.0 TT = JDT 2459600.5
T 2022 Jan. 3.29662 TT                                  Rudenko
q   0.6152376            (2000.0)            P               Q
z  -0.0000355      Peri.  225.09332     +0.63774279     +0.29160571
 +/-0.0000032      Node   255.89585     +0.72790808     -0.53081575
e   1.0000218      Incl.  132.68636     -0.25186098     -0.79573912
From 934 observations 2020 Apr. 11-2021 May 30, mean residual 0".7.

・ 星図

・ 光度変化

        m1 = 8.5 + 5 logΔ + 10.0 log r

---------------------------------------------------------------------

軌道要素はM.P.E.C. 2021-L04に掲載されたものです。
星図はステラナビゲータ Ver.10 (アストロアーツ) で作成したものです。
光度グラフはComet for Windowsで作成したものです。

---------------------------------------------------------------------

Copyright(C) Seiichi Yoshida (comet@aerith.net). All rights reserved.